Slayton, MN

7:12 AM CST on December 11, 2016 (GMT -0600)
Slayton

Weather History for KDVP - November, 2011

Change the Weather History Date:

Monday, November 14, 2011

  Actual Average (KOTG) Record (KOTG)
Temperature  
Mean Temperature 38 °F -  
Max Temperature 50 °F 40 °F 64 °F (2001)
Min Temperature 27 °F 25 °F -4 °F (1986)
Degree Days  
Heating Degree Days 26    
Moisture  
Dew Point 22 °F    
Average Humidity 54    
Maximum Humidity 73    
Minimum Humidity 28    
Precipitation  
Precipitation 0.00 in - - ()
Sea Level Pressure  
Sea Level Pressure 29.52 in    
Wind  
Wind Speed 13 mph (WSW)    
Max Wind Speed 25 mph    
Max Gust Speed 34 mph    
Visibility 10 miles    
Events      
Averages and records for this station are not official NWS values.
T = Trace of Precipitation, MM = Missing Value Source: NWS Daily Summary

Daily Weather History Graph

Daily Weather History Graph

Search for Another Location

Airport or City:

Trip Planner

Search our weather history database for the weather conditions in past years. The results will help you decide how hot, cold, wet, or windy it might be!

Date:

Astronomy

Nov. 14, 2011 Rise Set
Actual Time 7:16 AM CST 4:58 PM CST
Civil Twilight 6:45 AM CST 5:29 PM CST
Nautical Twilight 6:10 AM CST 6:04 PM CST
Astronomical Twilight 5:36 AM CST 6:38 PM CST
Moon 8:03 PM CST (11/14) 10:38 AM CST (11/14)
Length of Visible Light 10h 43m
Length of Day
9h 41m
Waning Gibbous, 86% of the Moon is Illuminated
Nov 14
Waning Gibbous
Nov 18
Last Quarter
Nov 25
New
Dec 2
First Quarter
Dec 10
Full

Hourly Weather History & Observations

Time (CST) Temp. Windchill Dew Point Humidity Pressure Visibility Wind Dir Wind Speed Gust Speed Precip Events Conditions
12:15 AM 32.7 °F 25.0 °F 24.6 °F 72% 29.49 in 10.0 mi SSW 9.2 mph - N/A   Clear
12:35 AM 32.0 °F 23.6 °F 24.3 °F 73% 29.49 in 10.0 mi SSW 10.4 mph - N/A   Clear
12:55 AM 32.0 °F 23.0 °F 24.3 °F 73% 29.47 in 10.0 mi SSW 11.5 mph - N/A   Clear
1:15 AM 31.6 °F 22.1 °F 23.7 °F 73% 29.47 in 10.0 mi SSW 12.7 mph - N/A   Clear
1:35 AM 32.5 °F 24.2 °F 23.9 °F 70% 29.46 in 10.0 mi SSW 10.4 mph - N/A   Clear
1:55 AM 31.6 °F 22.1 °F 23.4 °F 71% 29.46 in 10.0 mi SSW 12.7 mph - N/A   Clear
2:15 AM 31.8 °F 22.3 °F 23.0 °F 70% 29.47 in 10.0 mi SSW 12.7 mph - N/A   Clear
2:35 AM 32.0 °F 22.1 °F 23.0 °F 69% 29.46 in 10.0 mi SSW 13.8 mph - N/A   Clear
2:55 AM 32.0 °F 22.1 °F 23.2 °F 70% 29.45 in 10.0 mi SSW 13.8 mph - N/A   Clear
3:35 AM 32.5 °F 22.7 °F 23.4 °F 69% 29.44 in 10.0 mi SSW 13.8 mph - N/A   Clear
3:55 AM 32.0 °F 24.2 °F 23.2 °F 70% 29.44 in 10.0 mi SW 9.2 mph - N/A   Clear
4:15 AM 34.0 °F 25.0 °F 23.7 °F 66% 29.43 in 10.0 mi SSW 12.7 mph - N/A   Clear
4:35 AM 33.3 °F 25.1 °F 23.7 °F 68% 29.44 in 10.0 mi SW 10.4 mph - N/A   Clear
4:55 AM 33.6 °F 27.5 °F 23.9 °F 68% 29.45 in 10.0 mi WSW 6.9 mph - N/A   Clear
5:15 AM 32.9 °F 26.7 °F 23.9 °F 69% 29.44 in 10.0 mi SW 6.9 mph - N/A   Clear
5:35 AM 35.6 °F 25.9 °F 24.8 °F 65% 29.45 in 10.0 mi SW 16.1 mph - N/A   Clear
6:15 AM 37.4 °F 29.8 °F 23.7 °F 58% 29.45 in 10.0 mi WSW 11.5 mph - N/A   Mostly Cloudy
6:35 AM 38.1 °F 30.7 °F 23.0 °F 55% 29.45 in 10.0 mi West 11.5 mph - N/A   Scattered Clouds
6:55 AM 36.1 °F 28.2 °F 23.0 °F 59% 29.46 in 10.0 mi West 11.5 mph - N/A   Scattered Clouds
7:15 AM 35.1 °F 26.9 °F 22.8 °F 61% 29.47 in 10.0 mi West 11.5 mph - N/A   Clear
7:35 AM 33.6 °F 24.6 °F 22.6 °F 64% 29.48 in 10.0 mi West 12.7 mph - N/A   Clear
7:55 AM 35.2 °F 28.1 °F 22.1 °F 59% 29.49 in 10.0 mi West 9.2 mph - N/A   Clear
8:35 AM 37.0 °F 28.1 °F 24.6 °F 61% 29.50 in 10.0 mi West 15.0 mph - N/A   Clear
8:55 AM 37.6 °F 27.7 °F 26.2 °F 64% 29.51 in 10.0 mi West 18.4 mph - N/A   Clear
9:15 AM 39.2 °F 30.5 °F 27.5 °F 63% 29.51 in 10.0 mi WNW 16.1 mph 23.0 mph N/A   Clear
9:35 AM 39.9 °F 31.8 °F 28.2 °F 63% 29.51 in 10.0 mi West 15.0 mph - N/A   Clear
9:55 AM 41.0 °F 32.5 °F 28.4 °F 61% 29.52 in 10.0 mi West 17.3 mph - N/A   Clear
10:35 AM 44.4 °F 36.9 °F 28.8 °F 54% 29.52 in 10.0 mi West 17.3 mph 21.9 mph N/A   Clear
10:55 AM 45.5 °F 37.8 °F 27.3 °F 49% 29.52 in 10.0 mi West 19.6 mph 25.3 mph N/A   Clear
11:15 AM 46.6 °F - 24.6 °F 42% 29.51 in 10.0 mi West 23.0 mph 28.8 mph N/A   Clear
11:35 AM 46.6 °F - 24.6 °F 42% 29.52 in 10.0 mi West 23.0 mph 29.9 mph N/A   Clear
12:15 PM 47.8 °F - 21.9 °F 36% 29.53 in 10.0 mi West 24.2 mph 34.5 mph N/A   Clear
12:35 PM 49.3 °F - 20.8 °F 33% 29.54 in 10.0 mi West 25.3 mph 29.9 mph N/A   Clear
1:15 PM 50.0 °F - 18.3 °F 29% 29.54 in 10.0 mi West 21.9 mph 31.1 mph N/A   Clear
1:35 PM 50.0 °F - 18.1 °F 28% 29.54 in 10.0 mi West 24.2 mph 31.1 mph N/A   Clear
1:55 PM 50.0 °F - 18.7 °F 29% 29.54 in 10.0 mi West 21.9 mph 31.1 mph N/A   Clear
2:15 PM 50.5 °F - 18.3 °F 28% 29.54 in 10.0 mi West 21.9 mph 29.9 mph N/A   Clear
2:35 PM 50.0 °F - 18.9 °F 29% 29.55 in 10.0 mi West 24.2 mph 31.1 mph N/A   Clear
2:55 PM 50.0 °F - 20.5 °F 31% 29.54 in 10.0 mi WSW 18.4 mph 27.6 mph N/A   Clear
3:15 PM 49.8 °F - 21.2 °F 32% 29.54 in 10.0 mi WSW 23.0 mph 27.6 mph N/A   Clear
3:35 PM 50.0 °F - 21.2 °F 32% 29.53 in 10.0 mi WSW 15.0 mph 25.3 mph N/A   Clear
3:55 PM 50.2 °F - 20.8 °F 32% 29.54 in 10.0 mi WSW 20.7 mph 25.3 mph N/A   Clear
4:15 PM 50.0 °F - 20.8 °F 32% 29.54 in 10.0 mi WSW 18.4 mph 25.3 mph N/A   Clear
4:35 PM 49.1 °F - 20.3 °F 32% 29.55 in 10.0 mi West 16.1 mph 21.9 mph N/A   Clear
4:55 PM 47.7 °F - 20.3 °F 34% 29.56 in 10.0 mi West 13.8 mph 24.2 mph N/A   Clear
5:15 PM 46.0 °F 40.2 °F 21.0 °F 37% 29.57 in 10.0 mi West 12.7 mph 16.1 mph N/A   Clear
5:35 PM 44.8 °F 39.4 °F 21.0 °F 39% 29.57 in 10.0 mi WSW 10.4 mph - N/A   Clear
5:55 PM 43.7 °F 38.1 °F 21.2 °F 41% 29.58 in 10.0 mi West 10.4 mph - N/A   Scattered Clouds
6:15 PM 42.8 °F 37.5 °F 21.2 °F 42% 29.58 in 10.0 mi West 9.2 mph - N/A   Scattered Clouds
6:35 PM 41.5 °F 37.1 °F 21.2 °F 44% 29.58 in 10.0 mi WSW 6.9 mph - N/A   Clear
6:55 PM 35.4 °F 28.4 °F 20.1 °F 54% 29.59 in 10.0 mi SW 9.2 mph - N/A   Clear
7:15 PM 34.7 °F 26.4 °F 19.9 °F 55% 29.60 in 10.0 mi SSW 11.5 mph - N/A   Clear
7:35 PM 33.1 °F 26.1 °F 19.2 °F 57% 29.60 in 10.0 mi SW 8.1 mph - N/A   Clear
7:55 PM 36.9 °F 32.2 °F 21.0 °F 53% 29.59 in 10.0 mi South 5.8 mph - N/A   Clear
8:15 PM 32.7 °F 28.3 °F 19.4 °F 58% 29.59 in 10.0 mi SSW 4.6 mph - N/A   Clear
8:35 PM 30.4 °F 26.9 °F 16.2 °F 56% 29.59 in 10.0 mi South 3.5 mph - N/A   Clear
9:15 PM 28.8 °F 22.6 °F 16.5 °F 60% 29.60 in 10.0 mi South 5.8 mph - N/A   Clear
9:35 PM 29.7 °F 22.8 °F 17.2 °F 60% 29.60 in 10.0 mi SSW 6.9 mph - N/A   Clear
9:55 PM 27.9 °F 21.5 °F 15.8 °F 61% 29.60 in 10.0 mi South 5.8 mph - N/A   Clear
10:15 PM 28.2 °F 22.0 °F 16.3 °F 61% 29.60 in 10.0 mi SSE 5.8 mph - N/A   Clear
10:35 PM 28.8 °F 23.7 °F 17.8 °F 64% 29.59 in 10.0 mi ESE 4.6 mph - N/A   Clear
10:55 PM 28.8 °F - 18.0 °F 64% 29.59 in 10.0 mi Calm Calm - N/A   Clear
11:15 PM 29.5 °F 25.9 °F 18.7 °F 64% 29.57 in 10.0 mi SSE 3.5 mph - N/A   Clear
11:35 PM 29.7 °F 24.7 °F 18.9 °F 64% 29.56 in 10.0 mi SE 4.6 mph - N/A   Clear
11:55 PM 29.3 °F 22.3 °F 17.2 °F 61% 29.56 in 10.0 mi SE 6.9 mph - N/A   Clear